STARLINK-34912, 65378

Orbit data source: Space-Track

STARLINK-34912, 65378 is a payload satellite owned by SpaceX/Seattle (US) in LEO that was launched on Thu, 28 Aug 2025 UTC via an FALCON 9 launch vehicle from the Air Force Eastern Test Range (AFETR). Payload-class satellites include a variety of spacecraft equipped with specific instruments for various scientific and technological missions. These include communications satellites like Starlink; space stations such as the ISS; scientific satellites like the Hubble; Earth observation satellites from companies like Planet Labs, Umbra, and HawkEye 360; GPS; miniature CubeSats for education and research; and military/defense satellites.

Loading next visibility...
Identifier
65378, 2025-190AD
Orbit
LEO
Country
Flag of USUS
Related business
Manufacturer
SpaceX/Seattle
Mission
Operational Commercial Communications
Bus & Motor
STARLINK V2MO, Unknown motor
Mass
575 kg wet, ~530 kg dry
Launch date (UTC)
2025-08-28 (10 months ago)
Launch vehicle
FALCON 9
Launch site
Air Force Eastern Test Range (AFETR)
Object type
Payload
Rocket body
Debris
Shape & HBR
Box + 2 Pan, 17.7 m
Radar Cross Section
36.964 m², Large (>1 m²)

Expand to show TLE details & history
Last TLE update: 11 hours ago

TLE from 11 hours ago
0 STARLINK-34912
1 65378U 25190AD  26171.39111894  .00019285  00000-0  66134-3 0  9997
2 65378  53.1608  50.8214 0001602  79.6926 280.4255 15.30210028 45481
Epoch: 2026-06-20T09:23Z
TLE epoch observation values (Epoch: 2026-06-20T09:23:12.676Z)
Latitude
-0.00004°
Longitude
1.41213°
Altitude
475.886 km
Speed
7.629 km/s
True Right ascension
03h 23m 17s
True Declination
0° 00' 00"
Sunlit
Object was in daylight at epoch
Visualization orbit readout
Latitude
Unknown
Longitude
Unknown
Altitude
Unknown
Speed
Unknown
Apparent Right ascension
Unknown
Apparent Declination
Unknown
Sunlit
N/A
Visualization observer readout
Local Sidereal Time
07:19:37
Azimuth
Unknown
Elevation
Unknown
Doppler factor
Unknown
Orbital elements
Apogee altitude
476.539 km
Perigee altitude
474.343 km
Semi-major axis
6,853.578 km
Eccentricity
0.00016
Inclination
53.1608°
RAAN
50.8214°
Arg. of periapsis
79.6926°
True anomaly
280.40744°
Mean anomaly
280.4255°
Eccentric anomaly
280.41647°
Mean motion
3.82531 °/min
Orbital period
94.11 mins
BSTAR
0.00066134
Loading maneuver chart data...
Computing Atmospheric mass density...
Loading historical data...
Loading historical data...
Loading historical data...
Loading historical data...
Loading historical data...
Loading historical data...
Loading historical data...

Documentation

Showing up to 5 results
|